Temp_Advection
nan nan nan nan nan nan nan nan nan nan nan nan nan nan nan nan nan nan nan nan nan nan nan nan nan nan nan nan nan nan nan nan nan nan nan nan nan nan nan nan nan nan nan
nan 0 -0 -0 -0 -0 -0 -0 -0 0 -0 -0 -0 0 0 0 -0 -0 -1 -0 0 0 0 0 0 0 -0 -0 -1 -1 -0 -0 -0 -0 0 -0 -0 -0 0 0 -0 -0 nan
nan -0 0 -0 -0 -0 -0 0 0 -0 -0 -0 0 0 0 0 0 0 -0 -1 0 0 -0 -0 -0 -0 -0 -0 -1 -0 -0 -0 -0 0 0 0 0 0 0 0 0 0 nan
nan -0 0 0 -0 0 -0 -0 0 -0 -0 -0 0 0 0 0 -0 -0 0 0 -0 -0 -0 0 -0 -0 -0 -0 -0 -0 -0 -0 -0 0 0 0 0 0 0 0 0 0 nan
nan -0 -0 0 -0 0 0 0 -0 -0 -0 -0 0 0 0 0 0 -0 -0 -0 -0 -0 0 0 0 -0 -0 -0 -0 -0 -0 -0 -0 -0 0 0 0 0 0 0 0 0 nan
nan 0 -0 -0 0 0 0 0 -0 -0 -0 -0 0 0 0 0 0 0 -0 -0 -0 -0 -0 -0 -0 -0 -0 -0 -0 -0 -0 -0 -0 -0 0 0 0 -0 0 0 -0 -0 nan
nan 0 -0 0 -0 0 0 0 -0 -0 -0 -0 -0 0 0 0 0 0 0 -0 -0 -0 -0 -0 -0 -0 -0 -0 -0 -0 -0 -0 -0 -0 0 0 0 -0 -0 -0 -0 -0 nan
nan 0 -0 0 -0 -0 0 0 0 -0 -0 -0 -0 0 0 0 0 0 0 -0 -0 -0 -0 -0 -0 -0 -0 -0 -0 -0 -0 -0 -0 0 -0 -0 -0 -0 -0 -0 -0 -0 nan
nan -0 -0 -0 -0 -0 0 0 0 -0 -0 -0 -0 0 0 -0 0 0 0 0 -0 -0 -0 -0 -0 -0 -0 -0 -0 -0 -0 -0 -0 -0 -0 -0 -0 -0 -0 -0 -0 -0 nan
nan -0 0 -0 -0 -0 0 0 0 0 0 -0 0 0 0 0 -0 -0 0 0 0 0 0 -0 -0 -0 -0 -0 -0 -0 -0 -0 -0 -0 -0 -0 -0 -0 0 0 0 -0 nan
nan 0 0 0 0 0 -0 -0 0 -0 -0 -0 -0 0 0 0 0 0 0 0 0 0 0 0 0 0 -0 -0 -0 -0 -0 -0 -0 -0 -0 -0 -0 -0 0 0 0 0 nan
nan 0 0 0 0 0 0 -0 -0 0 -0 -0 -0 -0 0 0 0 0 0 0 0 0 0 0 0 0 -0 -0 -0 -0 -0 -0 -0 -0 -0 -0 -0 -0 -0 -0 0 0 nan
nan -0 -0 0 -0 0 0 0 -0 0 0 0 0 0 0 0 0 0 0 0 0 0 0 0 0 0 -0 -0 -0 -0 -0 -0 -0 -0 -0 -0 -0 -0 -0 -0 -0 -0 nan
nan -0 -0 -0 -0 -0 -0 0 0 0 0 0 0 0 0 0 -0 -0 0 0 0 0 0 0 0 0 -0 -0 -0 -0 -0 -0 -0 -0 -0 0 -0 -0 -0 -0 -0 -0 nan
nan 0 0 -0 0 0 0 0 0 0 0 0 0 0 0 -0 -0 0 0 0 0 0 0 0 -0 -0 -0 -0 -0 -0 -0 -0 -0 -0 -0 -0 0 -0 -0 -0 -0 -0 nan
nan 0 0 0 0 0 -0 0 0 0 0 -0 -0 -0 -0 -0 0 0 0 0 0 0 0 0 0 0 0 -0 0 -0 -0 -0 -0 -0 -0 -0 0 0 -0 -0 -0 -0 nan
nan 0 0 0 0 -0 0 0 0 0 -0 -0 -0 -0 -0 -0 -0 0 0 0 0 0 0 0 0 0 0 -0 -0 0 -0 -0 0 0 0 0 0 0 0 0 -0 -0 nan
nan 0 0 0 0 0 0 0 0 0 -0 0 0 0 -0 0 0 0 0 0 0 0 0 0 0 0 0 0 -0 -0 -0 -0 -0 0 0 0 0 0 0 0 0 0 nan
nan 0 0 0 0 0 0 0 0 0 0 0 0 0 0 -0 0 0 0 0 0 0 0 0 0 -0 -0 -0 0 0 -0 -0 -0 -0 0 0 0 0 0 0 0 0 nan
nan 0 0 0 0 0 0 0 0 0 0 0 -0 0 0 -0 0 0 0 0 0 0 0 0 0 0 0 -0 0 0 0 0 -0 -0 0 0 0 0 -0 -0 0 0 nan
nan -0 0 -0 -0 0 0 0 -0 -0 -0 0 0 0 0 0 0 0 0 0 0 0 0 0 -0 -0 -0 0 0 -0 0 0 -0 -0 0 0 0 0 0 0 0 0 nan
nan 0 -0 -0 -0 -0 -0 -0 0 0 0 0 0 0 0 0 0 0 0 0 0 0 0 0 0 0 -0 -0 0 -0 -0 -0 -0 -0 0 0 0 0 0 0 0 0 nan
nan -0 -0 -0 0 0 0 0 0 0 -0 -0 -0 -0 0 0 0 0 0 -0 -0 0 0 0 -0 0 1 0 0 -0 -0 0 -0 -0 0 0 0 0 0 -0 -0 0 nan
nan 0 0 0 0 0 0 0 -0 -1 -0 0 -0 0 0 0 -0 0 -0 0 0 -0 -0 0 0 1 0 0 0 1 1 0 -0 -0 0 0 -0 0 0 0 0 0 nan
nan 0 0 1 0 0 0 0 -0 0 0 0 -0 -0 -0 0 0 0 -0 -0 -0 0 0 0 0 0 0 0 0 0 1 1 0 -0 -0 0 0 0 0 0 0 0 nan
nan nan nan nan nan nan nan nan nan nan nan nan nan nan nan nan nan nan nan nan nan nan nan nan nan nan nan nan nan nan nan nan nan nan nan nan nan nan nan nan nan nan nan
Wind_Speed
20 22 21 18 17 15 14 12 12 13 13 17 18 14 12 11 14 16 20 22 20 19 16 14 12 13 16 18 19 20 21 23 23 23 20 19 20 20 18 16 18 16 15
26 24 22 20 17 15 14 13 12 14 17 19 16 12 11 12 14 15 16 15 15 14 13 13 15 17 19 20 22 23 22 20 21 21 21 17 19 16 13 13 14 17 15
27 26 23 20 19 16 14 12 13 16 20 18 14 13 13 15 15 15 16 16 14 12 14 16 17 19 19 20 21 20 19 18 19 17 16 15 15 10 11 11 11 12 10
28 27 25 22 20 17 14 13 15 18 20 17 14 15 16 17 17 17 17 16 16 18 18 18 18 18 18 19 19 17 17 15 16 14 12 9 10 10 12 12 12 11 10
28 27 25 22 20 17 15 15 16 18 19 18 15 15 16 17 18 19 19 19 18 18 18 18 17 18 17 17 16 15 14 15 13 13 11 12 11 12 13 13 13 13 12
27 26 25 22 19 17 15 15 17 18 19 18 16 15 16 16 18 18 19 18 18 18 17 16 16 16 15 15 13 12 13 12 10 9 7 8 9 11 12 14 14 15 14
26 25 24 21 19 17 16 15 16 19 20 18 17 14 14 16 17 17 17 17 17 16 15 14 13 13 12 11 11 10 10 10 10 9 9 9 8 8 10 12 13 14 15
22 24 24 19 18 16 15 15 16 18 19 20 17 12 11 13 15 15 15 15 14 13 12 11 10 9 9 9 9 8 7 9 8 8 9 10 8 8 7 9 11 13 14
16 21 22 20 18 17 16 14 15 18 18 19 17 11 13 12 12 11 12 12 11 10 9 8 7 6 6 6 6 6 6 6 6 7 8 10 10 8 7 7 9 12 13
16 15 23 22 19 18 16 13 14 17 17 17 16 14 12 11 10 10 9 9 8 7 6 5 4 4 3 4 4 4 4 5 5 7 8 8 9 10 10 8 9 11 13
14 15 22 22 20 18 17 14 13 15 16 17 15 11 7 8 8 8 7 6 6 5 4 3 2 2 1 1 1 3 3 5 6 6 7 8 9 9 10 11 10 11 13
17 13 18 16 18 19 17 16 13 13 14 14 12 9 7 8 7 6 6 6 5 4 3 2 1 1 1 2 2 3 4 5 6 7 7 8 9 10 10 12 12 11 12
18 18 16 17 13 15 16 14 12 11 12 12 10 10 9 6 3 3 3 4 5 5 4 3 2 2 2 5 4 4 5 5 5 7 8 9 9 10 11 11 11 12 13
21 19 16 18 18 14 13 11 10 9 13 12 10 10 10 7 7 6 5 4 3 4 3 4 2 4 4 5 5 6 7 8 8 9 10 10 11 12 12 12 13 12 13
22 22 19 23 15 20 15 11 9 8 12 5 8 7 9 11 9 9 7 5 4 4 3 4 3 4 6 7 8 9 9 11 12 12 13 13 14 14 13 14 15 15 14
25 23 19 24 18 17 13 10 12 12 11 9 13 10 11 11 8 9 8 6 5 5 4 5 6 6 6 8 8 10 11 11 14 15 16 17 18 17 17 17 16 15 15
25 23 23 22 23 21 18 16 15 15 15 14 13 12 10 13 9 9 9 7 6 7 7 8 8 9 11 11 10 8 11 13 15 17 17 17 16 17 17 18 18 18 16
23 26 24 24 26 26 24 21 19 17 18 16 16 15 12 11 12 10 9 9 8 7 7 7 9 11 10 10 12 12 15 16 17 19 20 17 18 21 19 19 17 18 18
26 26 28 27 26 24 22 21 21 18 19 17 18 16 13 10 12 12 10 9 9 8 9 9 9 10 12 14 16 17 19 20 19 19 19 20 20 17 12 12 16 18 15
23 22 22 23 23 21 21 21 20 20 20 20 22 17 13 11 10 12 11 10 9 11 12 13 15 14 14 17 18 20 20 21 21 22 21 18 11 14 13 15 18 18 15
20 21 22 24 23 24 25 24 21 23 27 22 19 15 14 13 11 12 12 11 13 15 15 16 16 16 17 17 21 22 22 22 25 22 13 15 15 15 16 17 17 13 15
15 21 23 25 24 24 24 23 21 18 21 19 19 16 17 17 16 14 15 16 17 16 17 17 18 20 21 21 23 24 27 23 20 8 12 13 15 15 15 15 16 13 14
19 20 23 23 25 24 24 23 24 22 19 20 20 22 22 23 21 19 18 17 18 18 20 21 22 23 23 23 23 21 12 6 6 6 6 11 12 15 13 12 16 19 21
22 19 24 25 25 24 25 26 27 25 22 21 21 23 23 21 18 19 18 19 21 20 20 20 22 22 22 23 20 21 21 20 16 10 11 12 12 15 11 15 16 21 25
25 23 23 27 25 26 25 25 22 22 23 23 22 23 22 21 20 18 17 17 19 19 20 22 22 22 21 21 20 18 19 19 20 21 20 20 17 18 16 15 16 19 22
27 25 25 26 27 29 27 25 23 24 24 25 24 22 21 21 19 17 16 18 19 21 23 23 22 22 22 22 22 21 20 20 20 20 22 22 19 17 17 16 18 20 20
Wind_Direction
173 162 154 146 141 136 130 120 109 104 103 108 107 104 98 102 111 118 109 104 109 111 106 101 94 89 88 89 87 86 86 84 80 76 71 74 77 79 73 67 57 66 64
159 160 155 149 143 134 129 125 113 109 113 112 115 101 94 102 116 126 130 121 114 111 103 96 93 94 92 91 90 88 89 86 80 74 73 76 76 75 72 59 59 59 57
157 155 153 149 142 138 138 131 124 123 126 121 114 101 94 96 105 119 129 125 114 115 103 101 99 99 93 93 94 90 87 80 76 71 70 76 79 68 51 45 42 43 54
154 152 151 148 144 144 141 134 127 130 132 120 111 101 96 97 102 107 111 112 110 103 106 102 99 98 95 94 98 92 88 92 85 78 74 83 61 49 42 36 33 31 30
153 151 147 147 146 144 136 131 128 133 133 122 107 104 98 98 102 106 108 109 107 106 103 101 99 98 97 95 96 95 87 91 95 79 65 58 49 45 44 43 46 46 42
154 152 148 148 148 144 139 134 131 135 135 126 119 113 104 102 103 104 106 108 108 107 105 103 102 100 97 93 91 86 81 79 72 76 58 39 35 43 50 54 50 45 40
152 155 151 154 152 148 143 138 135 140 139 136 129 128 113 110 109 108 108 110 112 112 110 108 105 101 99 95 88 81 76 73 68 58 52 40 32 39 48 45 42 38 33
155 159 156 159 155 152 145 141 141 145 147 143 136 138 127 122 119 118 118 118 118 118 116 113 107 103 98 91 86 77 66 58 48 47 40 26 24 25 30 28 28 24 22
175 171 162 161 158 155 150 145 144 148 149 150 144 147 128 122 118 120 122 123 122 120 117 113 108 98 88 79 71 64 56 52 44 29 24 14 6 8 5 360 9 9 10
184 191 171 164 162 160 157 151 148 151 151 156 154 140 136 130 130 130 132 129 129 128 127 125 121 112 97 85 71 50 35 24 24 7 6 0 355 349 349 349 342 349 355
193 193 178 169 168 167 167 159 152 156 156 159 163 164 147 147 149 149 147 149 147 146 146 141 139 127 105 74 52 32 12 1 3 355 350 346 348 343 334 331 335 334 342
180 178 176 171 172 175 178 175 162 159 169 172 175 178 183 181 150 163 174 173 177 179 181 188 191 246 298 307 325 357 356 359 352 339 352 347 342 339 332 327 331 327 331
183 169 169 182 193 189 186 189 180 175 171 169 177 181 201 199 210 193 202 194 200 209 219 227 251 284 327 326 340 350 346 356 340 332 337 336 333 333 331 327 328 324 326
195 195 192 190 202 200 205 212 202 198 191 188 173 175 202 204 245 231 208 212 216 224 234 242 267 296 329 347 324 329 337 335 333 328 327 324 321 319 322 322 322 321 319
200 200 197 194 209 202 211 216 212 203 194 184 214 207 215 227 216 225 215 216 235 219 256 290 306 319 313 317 320 326 321 324 327 328 325 323 324 321 321 317 312 312 310
208 201 193 203 205 201 210 208 220 206 186 193 207 230 236 225 210 210 213 226 243 251 254 257 265 268 281 283 288 294 308 319 322 324 326 324 323 320 317 319 319 306 299
200 193 186 198 207 220 222 213 213 196 196 210 230 236 235 231 220 206 209 209 222 238 242 250 253 258 265 274 279 293 301 302 302 306 303 307 304 304 301 308 311 316 304
195 201 192 202 208 207 212 216 210 210 203 213 225 241 244 226 226 221 212 225 237 244 250 259 266 267 273 288 292 286 283 282 284 283 289 289 285 291 293 295 304 306 308
205 201 204 209 211 211 218 220 225 212 206 216 217 235 237 234 224 222 221 221 231 248 263 268 271 275 283 283 284 286 284 280 277 281 283 288 289 289 287 286 291 301 300
205 207 208 199 207 207 208 213 218 214 214 214 225 228 234 243 232 225 226 230 234 246 252 258 269 270 279 286 287 286 285 285 287 286 286 284 280 280 276 286 296 298 295
216 214 212 205 208 208 212 215 214 214 214 221 211 212 222 229 230 233 241 228 240 247 256 262 268 274 277 282 289 290 290 295 293 299 283 264 269 258 274 295 296 295 296
216 218 217 219 218 214 213 214 216 211 211 211 207 211 218 218 218 227 235 239 242 248 256 263 266 273 276 280 282 286 292 293 294 277 256 250 255 263 286 292 290 303 300
217 221 220 220 224 220 216 212 215 216 212 210 208 218 225 234 234 236 238 249 254 260 263 264 268 269 272 271 268 269 284 258 279 289 244 245 266 285 298 302 306 317 311
220 225 226 225 225 225 224 220 217 219 219 217 214 223 225 235 245 251 252 259 262 264 269 273 275 277 275 277 272 266 258 259 270 275 252 266 284 281 286 292 297 312 308
221 226 229 227 229 229 231 229 226 229 229 226 220 225 235 243 248 253 253 258 265 272 275 277 278 279 278 277 273 271 264 256 254 254 263 264 261 269 264 276 284 297 300
215 216 221 227 226 226 225 225 223 228 225 237 230 229 238 247 250 251 260 270 277 279 280 280 277 275 275 275 272 267 263 256 259 253 256 256 262 249 256 266 280 294 295
Height
1539 1542 1546 1548 1551 1552 1553 1554 1555 1556 1557 1557 1558 1559 1560 1561 1561 1562 1563 1564 1564 1565 1566 1567 1568 1568 1568 1569 1569 1568 1568 1568 1568 1567 1568 1568 1567 1567 1567 1566 1565 1564 1563
1536 1541 1545 1548 1550 1552 1554 1555 1556 1557 1557 1558 1559 1560 1561 1561 1562 1563 1564 1565 1566 1567 1567 1568 1569 1570 1570 1571 1571 1570 1570 1570 1570 1570 1570 1570 1570 1570 1569 1567 1566 1566 1565
1537 1541 1545 1548 1550 1552 1554 1555 1556 1557 1558 1560 1561 1561 1562 1562 1563 1563 1564 1566 1567 1568 1569 1570 1571 1572 1572 1572 1573 1573 1572 1572 1572 1572 1572 1572 1571 1571 1570 1568 1568 1567 1566
1537 1541 1545 1548 1550 1552 1554 1556 1557 1558 1560 1561 1562 1563 1563 1564 1564 1565 1566 1567 1568 1570 1571 1572 1572 1573 1574 1574 1575 1575 1574 1574 1574 1573 1573 1573 1573 1572 1571 1569 1568 1568 1567
1539 1542 1545 1547 1550 1553 1554 1556 1558 1559 1561 1562 1563 1564 1565 1566 1566 1567 1568 1569 1570 1571 1573 1574 1574 1575 1576 1576 1576 1576 1576 1576 1576 1575 1575 1574 1574 1573 1571 1570 1569 1569 1568
1541 1543 1546 1548 1551 1553 1555 1557 1559 1560 1562 1563 1565 1566 1567 1568 1569 1569 1570 1571 1572 1573 1575 1575 1576 1577 1578 1578 1578 1578 1578 1577 1577 1578 1576 1576 1575 1574 1573 1572 1570 1569 1568
1542 1545 1547 1550 1552 1554 1556 1557 1559 1561 1563 1565 1566 1567 1568 1569 1570 1571 1573 1574 1574 1575 1576 1577 1578 1579 1579 1580 1580 1579 1579 1579 1578 1578 1578 1577 1576 1575 1574 1573 1572 1570 1569
1542 1545 1548 1551 1553 1555 1557 1558 1559 1561 1563 1565 1567 1567 1569 1570 1571 1573 1574 1575 1576 1577 1578 1579 1580 1580 1580 1581 1581 1581 1580 1580 1579 1579 1578 1577 1577 1576 1575 1574 1573 1571 1570
1545 1547 1547 1551 1553 1555 1558 1559 1560 1562 1564 1566 1568 1568 1569 1571 1573 1574 1575 1576 1577 1578 1579 1580 1580 1581 1581 1581 1582 1582 1581 1581 1580 1579 1578 1578 1577 1576 1576 1575 1573 1572 1571
1546 1549 1548 1550 1553 1555 1557 1559 1561 1562 1564 1566 1568 1569 1570 1571 1573 1575 1576 1577 1578 1579 1580 1580 1581 1581 1582 1581 1582 1582 1581 1581 1580 1579 1578 1578 1577 1576 1575 1575 1574 1572 1571
1547 1548 1549 1549 1552 1554 1557 1559 1561 1563 1564 1566 1568 1570 1571 1571 1573 1575 1576 1577 1578 1579 1580 1580 1581 1581 1581 1581 1581 1581 1581 1580 1580 1579 1578 1578 1577 1576 1575 1574 1573 1572 1570
1545 1548 1550 1552 1553 1554 1556 1559 1561 1563 1565 1566 1568 1570 1571 1571 1573 1574 1576 1576 1577 1578 1579 1580 1580 1580 1581 1581 1581 1580 1580 1580 1579 1578 1578 1577 1576 1575 1574 1573 1572 1571 1570
1545 1548 1551 1554 1555 1555 1555 1557 1560 1563 1564 1566 1568 1570 1569 1570 1572 1573 1574 1575 1576 1577 1578 1578 1579 1580 1580 1580 1580 1579 1579 1579 1579 1578 1577 1577 1576 1574 1573 1572 1570 1569 1568
1544 1546 1549 1552 1555 1556 1557 1557 1559 1562 1563 1565 1567 1569 1570 1570 1571 1572 1573 1574 1575 1576 1577 1577 1577 1578 1579 1579 1579 1579 1579 1578 1578 1577 1577 1576 1575 1573 1572 1571 1569 1568 1567
1543 1546 1548 1550 1552 1555 1557 1558 1559 1561 1563 1563 1565 1568 1569 1570 1571 1571 1572 1573 1574 1575 1575 1576 1576 1576 1577 1578 1578 1577 1578 1577 1577 1576 1575 1574 1573 1572 1571 1570 1568 1566 1565
1541 1544 1545 1550 1553 1555 1556 1557 1558 1560 1562 1564 1565 1566 1567 1568 1569 1569 1570 1571 1573 1573 1573 1574 1575 1576 1576 1576 1577 1577 1576 1576 1575 1575 1574 1573 1571 1570 1569 1568 1567 1565 1564
1537 1540 1542 1547 1551 1552 1554 1556 1557 1559 1561 1563 1564 1564 1565 1566 1567 1568 1569 1570 1571 1572 1572 1573 1573 1573 1574 1574 1574 1575 1574 1574 1573 1573 1571 1570 1569 1568 1567 1565 1564 1563 1562
1535 1538 1541 1545 1547 1550 1551 1553 1554 1557 1560 1561 1562 1563 1563 1564 1565 1566 1567 1568 1570 1571 1570 1571 1572 1572 1571 1572 1572 1572 1572 1571 1570 1569 1568 1567 1565 1564 1564 1563 1561 1560 1559
1532 1534 1536 1540 1543 1546 1548 1550 1552 1555 1556 1559 1560 1561 1562 1562 1562 1564 1565 1567 1568 1570 1570 1569 1569 1570 1570 1570 1569 1569 1568 1567 1566 1565 1564 1563 1562 1560 1560 1559 1558 1557 1555
1529 1531 1533 1536 1540 1543 1545 1547 1548 1552 1554 1555 1558 1559 1560 1561 1561 1561 1563 1565 1567 1567 1568 1568 1567 1567 1567 1567 1565 1564 1563 1563 1562 1560 1559 1559 1557 1556 1556 1555 1555 1553 1552
1526 1530 1532 1533 1535 1539 1540 1542 1543 1547 1550 1553 1555 1557 1558 1559 1560 1561 1561 1563 1564 1564 1565 1565 1564 1564 1564 1563 1562 1560 1559 1559 1557 1556 1554 1553 1553 1553 1552 1552 1551 1549 1549
1522 1525 1529 1530 1533 1535 1537 1539 1541 1544 1546 1550 1553 1554 1554 1556 1557 1558 1559 1560 1559 1560 1561 1561 1560 1560 1559 1560 1558 1556 1554 1555 1553 1550 1549 1550 1550 1549 1549 1548 1547 1546 1546
1518 1521 1523 1526 1529 1531 1532 1535 1538 1541 1543 1546 1548 1549 1550 1552 1553 1554 1555 1557 1556 1556 1556 1556 1555 1554 1553 1554 1553 1554 1551 1549 1550 1549 1548 1548 1548 1546 1545 1544 1544 1543 1543
1514 1516 1519 1521 1524 1526 1527 1529 1532 1535 1538 1540 1543 1545 1546 1548 1549 1551 1550 1552 1552 1551 1551 1550 1549 1548 1548 1547 1547 1547 1547 1547 1547 1546 1545 1545 1545 1543 1542 1540 1540 1540 1539
1510 1511 1513 1516 1521 1523 1525 1527 1529 1532 1537 1537 1538 1540 1541 1543 1544 1546 1546 1547 1547 1546 1545 1544 1544 1542 1542 1542 1541 1541 1541 1541 1541 1542 1540 1542 1542 1541 1539 1537 1537 1537 1536
1507 1508 1510 1512 1515 1517 1519 1522 1524 1528 1530 1536 1534 1534 1537 1539 1540 1540 1540 1541 1541 1540 1539 1538 1538 1537 1536 1536 1536 1536 1535 1535 1535 1536 1536 1537 1538 1537 1535 1534 1533 1533 1533